Wetterdaten: Sonntag, 10.04.2011
Datum Zeit Temp. a Sch. Temp. a Son. Temp. a Bod. Feuchte a. Luftdruck Regen Wind Richtung Richtung Sonnenschein Helligkeit Taupunkt Windchill
10.04.2011 00:02 6,1 C 7,6 C 7,7 C 61 % 1023 hPa 0,0 l/m 0,0 m/s (0 Bft) W 265 0 min 0 lux -0,8 C 6,1 C
10.04.2011 00:07 5,9 C 7,4 C 7,7 C 61 % 1023 hPa 0,0 l/m 0,0 m/s (0 Bft) W 265 0 min 0 lux -1,0 C 5,9 C
10.04.2011 00:12 5,8 C 7,4 C 7,7 C 61 % 1023 hPa 0,0 l/m 0,0 m/s (0 Bft) W 265 0 min 0 lux -1,1 C 5,8 C
10.04.2011 00:17 5,7 C 7,2 C 7,6 C 63 % 1023 hPa 0,0 l/m 0,0 m/s (0 Bft) W 265 0 min 0 lux -0,8 C 5,7 C
10.04.2011 00:22 5,6 C 7,1 C 7,3 C 63 % 1023 hPa 0,0 l/m 0,0 m/s (0 Bft) W 265 0 min 0 lux -0,9 C 5,6 C
10.04.2011 00:27 5,5 C 7,0 C 7,3 C 63 % 1023 hPa 0,0 l/m 0,0 m/s (0 Bft) W 265 0 min 0 lux -1,0 C 5,5 C
10.04.2011 00:32 5,4 C 6,9 C 7,3 C 63 % 1023 hPa 0,0 l/m 0,0 m/s (0 Bft) W 265 0 min 0 lux -1,1 C 5,4 C
10.04.2011 00:37 5,3 C 6,8 C 7,3 C 63 % 1023 hPa 0,0 l/m 0,0 m/s (0 Bft) W 265 0 min 0 lux -1,2 C 5,3 C
10.04.2011 00:42 5,2 C 6,7 C 7,2 C 63 % 1023 hPa 0,0 l/m 0,0 m/s (0 Bft) W 265 0 min 0 lux -1,3 C 5,2 C
10.04.2011 00:47 5,2 C 6,7 C 7,2 C 64 % 1023 hPa 0,0 l/m 0,0 m/s (0 Bft) W 265 0 min 0 lux -1,0 C 5,2 C
10.04.2011 00:52 5,2 C 6,6 C 7,2 C 64 % 1023 hPa 0,0 l/m 0,0 m/s (0 Bft) W 265 0 min 0 lux -1,0 C 5,2 C
10.04.2011 00:57 4,9 C 6,5 C 7,1 C 65 % 1023 hPa 0,0 l/m 0,0 m/s (0 Bft) W 265 0 min 0 lux -1,1 C 4,9 C
10.04.2011 01:02 4,9 C 6,5 C 6,9 C 65 % 1023 hPa 0,0 l/m 0,0 m/s (0 Bft) W 265 0 min 0 lux -1,1 C 4,9 C
10.04.2011 01:06 4,7 C 6,4 C 6,9 C 65 % 1023 hPa 0,0 l/m 0,0 m/s (0 Bft) W 265 0 min 0 lux -1,3 C 4,7 C
10.04.2011 01:11 4,7 C 6,2 C 6,8 C 67 % 1023 hPa 0,0 l/m 0,0 m/s (0 Bft) W 265 0 min 0 lux -0,9 C 4,7 C
10.04.2011 01:16 4,6 C 6,1 C 6,8 C 66 % 1023 hPa 0,0 l/m 0,0 m/s (0 Bft) W 265 0 min 0 lux -1,2 C 4,6 C
10.04.2011 01:21 4,5 C 6,1 C 6,7 C 66 % 1023 hPa 0,0 l/m 0,0 m/s (0 Bft) W 270 0 min 0 lux -1,3 C 4,5 C
10.04.2011 01:26 4,4 C 6,0 C 6,6 C 67 % 1023 hPa 0,0 l/m 0,0 m/s (0 Bft) W 270 0 min 0 lux -1,2 C 4,4 C
10.04.2011 01:31 4,4 C 5,9 C 6,6 C 67 % 1023 hPa 0,0 l/m 0,0 m/s (0 Bft) W 270 0 min 0 lux -1,2 C 4,4 C
10.04.2011 01:36 4,3 C 5,9 C 6,5 C 67 % 1023 hPa 0,0 l/m 0,0 m/s (0 Bft) W 265 0 min 0 lux -1,3 C 4,3 C
10.04.2011 01:41 4,2 C 5,8 C 6,5 C 67 % 1023 hPa 0,0 l/m 0,0 m/s (0 Bft) W 270 0 min 0 lux -1,4 C 4,2 C
10.04.2011 01:46 4,1 C 5,7 C 6,3 C 67 % 1023 hPa 0,0 l/m 0,0 m/s (0 Bft) W 265 0 min 0 lux -1,5 C 4,1 C
10.04.2011 01:51 4,1 C 5,6 C 6,3 C 68 % 1023 hPa 0,0 l/m 0,0 m/s (0 Bft) W 265 0 min 0 lux -1,3 C 4,1 C
10.04.2011 01:56 4,0 C 5,5 C 6,3 C 68 % 1023 hPa 0,0 l/m 0,0 m/s (0 Bft) W 265 0 min 0 lux -1,4 C 4,0 C
10.04.2011 02:01 3,9 C 5,5 C 6,3 C 68 % 1023 hPa 0,0 l/m 0,0 m/s (0 Bft) W 265 0 min 0 lux -1,5 C 3,9 C
10.04.2011 02:06 3,9 C 5,3 C 6,2 C 68 % 1023 hPa 0,0 l/m 0,0 m/s (0 Bft) W 265 0 min 0 lux -1,5 C 3,9 C
10.04.2011 02:11 3,9 C 5,3 C 6,1 C 69 % 1023 hPa 0,0 l/m 0,0 m/s (0 Bft) W 265 0 min 0 lux -1,3 C 3,9 C
10.04.2011 02:16 3,9 C 5,3 C 6,1 C 70 % 1023 hPa 0,0 l/m 0,0 m/s (0 Bft) W 265 0 min 0 lux -1,1 C 3,9 C
10.04.2011 02:21 3,8 C 5,1 C 6,1 C 69 % 1023 hPa 0,0 l/m 0,0 m/s (0 Bft) W 265 0 min 0 lux -1,4 C 3,8 C
10.04.2011 02:26 3,7 C 5,1 C 6,1 C 69 % 1023 hPa 0,0 l/m 0,0 m/s (0 Bft) W 265 0 min 0 lux -1,4 C 3,7 C
10.04.2011 02:31 3,6 C 5,1 C 6,0 C 70 % 1023 hPa 0,0 l/m 0,0 m/s (0 Bft) W 265 0 min 0 lux -1,3 C 3,6 C
10.04.2011 02:36 3,5 C 5,0 C 5,8 C 69 % 1023 hPa 0,0 l/m 0,0 m/s (0 Bft) W 265 0 min 0 lux -1,6 C 3,5 C
10.04.2011 02:41 3,4 C 4,9 C 5,7 C 70 % 1023 hPa 0,0 l/m 0,0 m/s (0 Bft) W 265 0 min 0 lux -1,5 C 3,4 C
10.04.2011 02:46 3,3 C 4,9 C 5,7 C 71 % 1023 hPa 0,0 l/m 0,0 m/s (0 Bft) W 265 0 min 0 lux -1,4 C 3,3 C
10.04.2011 02:51 3,2 C 4,8 C 5,7 C 71 % 1023 hPa 0,0 l/m 0,0 m/s (0 Bft) W 265 0 min 0 lux -1,5 C 3,2 C
10.04.2011 02:56 3,1 C 4,7 C 5,6 C 72 % 1023 hPa 0,0 l/m 0,0 m/s (0 Bft) W 265 0 min 0 lux -1,4 C 3,1 C
10.04.2011 03:01 3,1 C 4,7 C 5,7 C 71 % 1023 hPa 0,0 l/m 0,0 m/s (0 Bft) W 265 0 min 0 lux -1,6 C 3,1 C
10.04.2011 03:06 2,9 C 4,6 C 5,5 C 73 % 1023 hPa 0,0 l/m 0,0 m/s (0 Bft) W 270 0 min 0 lux -1,5 C 2,9 C
10.04.2011 03:11 2,9 C 4,5 C 5,4 C 73 % 1023 hPa 0,0 l/m 0,0 m/s (0 Bft) W 270 0 min 0 lux -1,5 C 2,9 C
10.04.2011 03:16 2,7 C 4,4 C 5,4 C 73 % 1023 hPa 0,0 l/m 0,0 m/s (0 Bft) W 265 0 min 0 lux -1,6 C 2,7 C
10.04.2011 03:21 2,7 C 4,3 C 5,3 C 73 % 1023 hPa 0,0 l/m 0,0 m/s (0 Bft) W 265 0 min 0 lux -1,6 C 2,7 C
10.04.2011 03:26 2,7 C 4,2 C 5,3 C 73 % 1023 hPa 0,0 l/m 0,0 m/s (0 Bft) W 265 0 min 0 lux -1,6 C 2,7 C
10.04.2011 03:31 2,7 C 4,2 C 5,3 C 73 % 1023 hPa 0,0 l/m 0,0 m/s (0 Bft) W 265 0 min 0 lux -1,6 C 2,7 C
10.04.2011 03:36 2,7 C 4,1 C 5,3 C 73 % 1023 hPa 0,0 l/m 0,0 m/s (0 Bft) W 265 0 min 0 lux -1,6 C 2,7 C
10.04.2011 03:41 2,7 C 4,1 C 5,2 C 73 % 1023 hPa 0,0 l/m 0,0 m/s (0 Bft) W 265 0 min 0 lux -1,6 C 2,7 C
10.04.2011 03:46 2,7 C 4,0 C 5,2 C 73 % 1023 hPa 0,0 l/m 0,0 m/s (0 Bft) W 265 0 min 0 lux -1,6 C 2,7 C
10.04.2011 03:51 2,7 C 4,0 C 5,2 C 73 % 1023 hPa 0,0 l/m 0,0 m/s (0 Bft) W 265 0 min 0 lux -1,6 C 2,7 C
10.04.2011 03:56 2,6 C 4,0 C 5,1 C 73 % 1023 hPa 0,0 l/m 0,0 m/s (0 Bft) W 265 0 min 0 lux -1,7 C 2,6 C
10.04.2011 04:01 2,6 C 4,0 C 5,1 C 73 % 1023 hPa 0,0 l/m 0,0 m/s (0 Bft) W 265 0 min 0 lux -1,7 C 2,6 C
10.04.2011 04:06 2,5 C 3,8 C 5,1 C 73 % 1023 hPa 0,0 l/m 0,0 m/s (0 Bft) W 265 0 min 0 lux -1,8 C 2,5 C
10.04.2011 04:11 2,5 C 3,8 C 5,0 C 74 % 1023 hPa 0,0 l/m 0,0 m/s (0 Bft) W 265 0 min 0 lux -1,7 C 2,5 C
10.04.2011 04:16 2,4 C 3,7 C 4,9 C 74 % 1023 hPa 0,0 l/m 0,0 m/s (0 Bft) W 265 0 min 0 lux -1,7 C 2,4 C
10.04.2011 04:21 2,3 C 3,7 C 4,9 C 74 % 1023 hPa 0,0 l/m 0,0 m/s (0 Bft) W 265 0 min 0 lux -1,8 C 2,3 C
10.04.2011 04:26 2,3 C 3,6 C 4,8 C 74 % 1023 hPa 0,0 l/m 0,0 m/s (0 Bft) W 265 0 min 0 lux -1,8 C 2,3 C
10.04.2011 04:31 2,2 C 3,5 C 4,8 C 74 % 1023 hPa 0,0 l/m 0,0 m/s (0 Bft) W 265 0 min 0 lux -1,9 C 2,2 C
10.04.2011 04:36 2,1 C 3,5 C 4,7 C 75 % 1023 hPa 0,0 l/m 0,0 m/s (0 Bft) W 265 0 min 0 lux -1,9 C 2,1 C
10.04.2011 04:41 2,0 C 3,5 C 4,6 C 75 % 1023 hPa 0,0 l/m 0,0 m/s (0 Bft) W 265 0 min 0 lux -2,0 C 2,0 C
10.04.2011 04:46 2,0 C 3,4 C 4,6 C 75 % 1023 hPa 0,0 l/m 0,0 m/s (0 Bft) W 265 0 min 0 lux -2,0 C 2,0 C
10.04.2011 04:52 2,0 C 3,3 C 4,6 C 75 % 1023 hPa 0,0 l/m 0,0 m/s (0 Bft) W 265 0 min 0 lux -2,0 C 2,0 C
10.04.2011 04:57 2,0 C 3,3 C 4,5 C 76 % 1023 hPa 0,0 l/m 0,0 m/s (0 Bft) W 265 0 min 0 lux -1,8 C 2,0 C
10.04.2011 05:02 2,0 C 3,3 C 4,5 C 76 % 1023 hPa 0,0 l/m 0,0 m/s (0 Bft) W 265 0 min 0 lux -1,8 C 2,0 C
10.04.2011 05:07 1,9 C 3,2 C 4,5 C 76 % 1023 hPa 0,0 l/m 0,0 m/s (0 Bft) W 265 0 min 0 lux -1,9 C 1,9 C
10.04.2011 05:12 1,9 C 3,2 C 4,4 C 76 % 1023 hPa 0,0 l/m 0,0 m/s (0 Bft) W 265 0 min 0 lux -1,9 C 1,9 C
10.04.2011 05:17 1,9 C 3,2 C 4,4 C 76 % 1023 hPa 0,0 l/m 0,0 m/s (0 Bft) W 265 0 min 0 lux -1,9 C 1,9 C
10.04.2011 05:22 1,8 C 3,1 C 4,3 C 76 % 1023 hPa 0,0 l/m 0,0 m/s (0 Bft) W 265 0 min 0 lux -2,0 C 1,8 C
10.04.2011 05:27 1,7 C 3,0 C 4,3 C 76 % 1023 hPa 0,0 l/m 0,0 m/s (0 Bft) W 265 0 min 0 lux -2,1 C 1,7 C
10.04.2011 05:32 1,6 C 3,0 C 4,2 C 76 % 1023 hPa 0,0 l/m 0,0 m/s (0 Bft) W 265 0 min 0 lux -2,2 C 1,6 C
10.04.2011 05:37 1,6 C 3,0 C 4,2 C 76 % 1023 hPa 0,0 l/m 0,0 m/s (0 Bft) W 265 0 min 0 lux -2,2 C 1,6 C
10.04.2011 05:42 1,6 C 2,9 C 4,1 C 76 % 1023 hPa 0,0 l/m 0,0 m/s (0 Bft) W 265 0 min 0 lux -2,2 C 1,6 C
10.04.2011 05:47 1,6 C 2,8 C 4,2 C 77 % 1023 hPa 0,0 l/m 0,0 m/s (0 Bft) W 265 0 min 0 lux -2,0 C 1,6 C
10.04.2011 05:52 1,5 C 2,8 C 4,1 C 77 % 1023 hPa 0,0 l/m 0,0 m/s (0 Bft) W 265 0 min 0 lux -2,1 C 1,5 C
10.04.2011 05:57 1,5 C 2,8 C 4,0 C 77 % 1024 hPa 0,0 l/m 0,0 m/s (0 Bft) W 265 0 min 0 lux -2,1 C 1,5 C
10.04.2011 06:02 1,4 C 2,7 C 4,0 C 77 % 1024 hPa 0,0 l/m 0,0 m/s (0 Bft) W 265 0 min 0 lux -2,2 C 1,4 C
10.04.2011 06:07 1,3 C 2,6 C 4,0 C 78 % 1024 hPa 0,0 l/m 0,0 m/s (0 Bft) W 265 0 min 0 lux -2,1 C 1,3 C
10.04.2011 06:12 1,4 C 2,6 C 3,9 C 78 % 1024 hPa 0,0 l/m 0,0 m/s (0 Bft) W 265 0 min 0 lux -2,0 C 1,4 C
10.04.2011 06:17 1,3 C 2,6 C 3,9 C 78 % 1024 hPa 0,0 l/m 0,0 m/s (0 Bft) W 265 0 min 0 lux -2,1 C 1,3 C
10.04.2011 06:22 1,3 C 2,6 C 3,9 C 78 % 1024 hPa 0,0 l/m 0,0 m/s (0 Bft) W 265 0 min 0 lux -2,1 C 1,3 C
10.04.2011 06:27 1,3 C 2,5 C 3,8 C 78 % 1024 hPa 0,0 l/m 0,0 m/s (0 Bft) W 265 0 min 52 lux -2,1 C 1,3 C
10.04.2011 06:32 1,3 C 2,4 C 3,7 C 78 % 1024 hPa 0,0 l/m 0,0 m/s (0 Bft) W 265 0 min 99 lux -2,1 C 1,3 C
10.04.2011 06:37 1,2 C 2,3 C 3,7 C 79 % 1024 hPa 0,0 l/m 0,0 m/s (0 Bft) W 265 0 min 187 lux -2,0 C 1,2 C
10.04.2011 06:42 1,2 C 2,3 C 3,7 C 79 % 1024 hPa 0,0 l/m 0,0 m/s (0 Bft) W 265 0 min 328 lux -2,0 C 1,2 C
10.04.2011 06:47 1,2 C 2,3 C 3,7 C 79 % 1024 hPa 0,0 l/m 0,0 m/s (0 Bft) W 265 0 min 533 lux -2,0 C 1,2 C
10.04.2011 06:52 1,2 C 2,3 C 3,7 C 79 % 1024 hPa 0,0 l/m 0,0 m/s (0 Bft) W 265 0 min 820 lux -2,0 C 1,2 C
10.04.2011 06:57 1,2 C 2,2 C 3,8 C 79 % 1024 hPa 0,0 l/m 0,0 m/s (0 Bft) W 265 0 min 1,18 klux -2,0 C 1,2 C
10.04.2011 07:02 1,2 C 2,2 C 3,6 C 79 % 1024 hPa 0,0 l/m 0,0 m/s (0 Bft) W 265 0 min 1,67 klux -2,0 C 1,2 C
10.04.2011 07:07 1,3 C 2,2 C 3,7 C 80 % 1024 hPa 0,0 l/m 0,0 m/s (0 Bft) W 265 0 min 1,96 klux -1,8 C 1,3 C
10.04.2011 07:12 1,4 C 2,3 C 3,7 C 80 % 1024 hPa 0,0 l/m 0,0 m/s (0 Bft) W 265 0 min 2,71 klux -1,7 C 1,4 C
10.04.2011 07:17 1,5 C 2,3 C 3,7 C 80 % 1024 hPa 0,0 l/m 0,0 m/s (0 Bft) W 265 0 min 3,11 klux -1,6 C 1,5 C
10.04.2011 07:22 1,7 C 2,3 C 3,7 C 80 % 1024 hPa 0,0 l/m 0,0 m/s (0 Bft) W 265 0 min 4,21 klux -1,4 C 1,7 C
10.04.2011 07:27 1,9 C 2,3 C 3,9 C 79 % 1024 hPa 0,0 l/m 0,0 m/s (0 Bft) W 265 0 min 5,75 klux -1,3 C 1,9 C
10.04.2011 07:32 2,1 C 2,3 C 3,9 C 79 % 1024 hPa 0,0 l/m 0,0 m/s (0 Bft) W 265 0 min 6,84 klux -1,2 C 2,1 C
10.04.2011 07:36 2,4 C 2,4 C 4,1 C 79 % 1024 hPa 0,0 l/m 0,0 m/s (0 Bft) W 265 0 min 8,08 klux -0,9 C 2,4 C
10.04.2011 07:41 2,8 C 2,4 C 4,3 C 79 % 1024 hPa 0,0 l/m 0,0 m/s (0 Bft) W 265 0 min 9,6 klux -0,5 C 2,8 C
10.04.2011 07:46 3,1 C 2,6 C 4,4 C 78 % 1024 hPa 0,0 l/m 0,0 m/s (0 Bft) W22.5 270 0 min 11,1 klux -0,4 C 3,1 C
10.04.2011 07:51 3,1 C 2,6 C 4,5 C 78 % 1024 hPa 0,0 l/m 0,0 m/s (0 Bft) W22.5 270 0 min 12,7 klux -0,4 C 3,1 C
10.04.2011 07:56 3,4 C 2,7 C 4,7 C 78 % 1024 hPa 0,0 l/m 1,7 m/s (2 Bft) W22.5 265 0 min 13,7 klux -0,1 C 3,4 C
10.04.2011 08:01 3,7 C 2,8 C 4,8 C 77 % 1024 hPa 0,0 l/m 0,3 m/s (0 Bft) W45 265 0 min 15,2 klux 0,1 C 3,7 C
10.04.2011 08:06 3,7 C 2,9 C 4,9 C 77 % 1024 hPa 0,0 l/m 0,4 m/s (1 Bft) W-SW22.5 250 5 min 16,8 klux 0,1 C 3,7 C
10.04.2011 08:11 3,7 C 3,0 C 4,9 C 77 % 1024 hPa 0,0 l/m 2,2 m/s (2 Bft) W45 265 5 min 18,6 klux 0,1 C 2,4 C
10.04.2011 08:16 3,8 C 3,2 C 5,1 C 77 % 1024 hPa 0,0 l/m 2,1 m/s (2 Bft) W45 265 5 min 20,4 klux 0,1 C 2,9 C
10.04.2011 08:21 3,9 C 3,3 C 5,3 C 77 % 1024 hPa 0,0 l/m 1,0 m/s (1 Bft) W-SW45 250 5 min 22,2 klux 0,2 C 3,9 C
10.04.2011 08:26 4,3 C 3,5 C 5,4 C 77 % 1024 hPa 0,0 l/m 0,1 m/s (0 Bft) W22.5 260 5 min 24,0 klux 0,6 C 4,3 C
10.04.2011 08:31 4,6 C 3,7 C 5,6 C 75 % 1024 hPa 0,0 l/m 0,1 m/s (0 Bft) W22.5 260 5 min 26,3 klux 0,6 C 4,6 C
10.04.2011 08:36 4,7 C 3,9 C 5,6 C 75 % 1024 hPa 0,0 l/m 0,1 m/s (0 Bft) W22.5 260 5 min 28,4 klux 0,7 C 4,7 C
10.04.2011 08:41 4,9 C 4,0 C 5,8 C 75 % 1024 hPa 0,0 l/m 0,0 m/s (0 Bft) W-SW22.5 245 5 min 29,7 klux 0,8 C 4,9 C
10.04.2011 08:46 5,3 C 4,2 C 6,0 C 74 % 1024 hPa 0,0 l/m 0,1 m/s (0 Bft) W-SW22.5 250 5 min 30,8 klux 1,0 C 5,3 C
10.04.2011 08:52 5,6 C 4,4 C 6,2 C 74 % 1024 hPa 0,0 l/m 0,1 m/s (0 Bft) W-SW22.5 240 6 min 32,0 klux 1,3 C 5,6 C
10.04.2011 08:57 5,8 C 4,5 C 6,4 C 73 % 1024 hPa 0,0 l/m 0,0 m/s (0 Bft) W-SW22.5 245 5 min 33,6 klux 1,3 C 5,8 C
10.04.2011 09:02 6,1 C 4,8 C 6,6 C 72 % 1024 hPa 0,0 l/m 0,0 m/s (0 Bft) SW22.5 235 5 min 35,3 klux 1,4 C 6,1 C
10.04.2011 09:07 6,4 C 5,0 C 6,8 C 72 % 1024 hPa 0,0 l/m 0,0 m/s (0 Bft) SW 235 5 min 36,4 klux 1,7 C 6,4 C
10.04.2011 09:11 6,6 C 5,3 C 7,0 C 71 % 1024 hPa 0,0 l/m 0,0 m/s (0 Bft) SW22.5 235 4 min 37,5 klux 1,7 C 6,6 C
10.04.2011 09:16 7,0 C 5,4 C 7,1 C 71 % 1024 hPa 0,0 l/m 0,0 m/s (0 Bft) W-SW22.5 240 5 min 39,9 klux 2,1 C 7,0 C
10.04.2011 09:21 7,3 C 5,6 C 7,3 C 70 % 1024 hPa 0,0 l/m 0,0 m/s (0 Bft) SW 230 5 min 41,3 klux 2,2 C 7,3 C
10.04.2011 09:26 7,5 C 6,0 C 7,4 C 70 % 1024 hPa 0,0 l/m 0,0 m/s (0 Bft) SW 225 5 min 42,6 klux 2,4 C 7,5 C
10.04.2011 09:31 7,7 C 6,1 C 7,4 C 69 % 1024 hPa 0,0 l/m 0,0 m/s (0 Bft) SW22.5 230 5 min 43,7 klux 2,4 C 7,7 C
10.04.2011 09:37 8,1 C 6,4 C 7,7 C 68 % 1024 hPa 0,0 l/m 0,0 m/s (0 Bft) SW45 230 6 min 44,8 klux 2,6 C 8,1 C
10.04.2011 09:42 8,2 C 6,7 C 7,9 C 68 % 1024 hPa 0,0 l/m 0,0 m/s (0 Bft) W-SW45 240 5 min 45,7 klux 2,7 C 8,2 C
10.04.2011 09:47 8,5 C 6,8 C 8,1 C 68 % 1024 hPa 0,0 l/m 0,0 m/s (0 Bft) SW22.5 235 5 min 46,9 klux 2,9 C 8,5 C
10.04.2011 09:52 9,0 C 7,0 C 8,2 C 67 % 1024 hPa 0,0 l/m 0,0 m/s (0 Bft) SW22.5 235 5 min 48,4 klux 3,2 C 9,0 C
10.04.2011 09:56 9,4 C 7,6 C 8,3 C 67 % 1024 hPa 0,0 l/m 0,0 m/s (0 Bft) SW22.5 230 4 min 49,9 klux 3,6 C 9,4 C
10.04.2011 10:02 9,6 C 8,1 C 8,5 C 67 % 1024 hPa 0,0 l/m 0,0 m/s (0 Bft) SW45 235 6 min 51,5 klux 3,8 C 9,6 C
10.04.2011 10:06 10,0 C 8,3 C 8,8 C 66 % 1024 hPa 0,0 l/m 0,0 m/s (0 Bft) SW22.5 225 4 min 52,1 klux 3,9 C 10,0 C
10.04.2011 10:11 10,3 C 8,6 C 8,8 C 66 % 1024 hPa 0,0 l/m 0,0 m/s (0 Bft) SW22.5 225 5 min 53,7 klux 4,2 C 10,3 C
10.04.2011 10:16 10,4 C 9,0 C 9,1 C 65 % 1024 hPa 0,0 l/m 0,0 m/s (0 Bft) SW22.5 215 5 min 54,7 klux 4,1 C 10,4 C
10.04.2011 10:21 10,8 C 9,2 C 9,2 C 64 % 1024 hPa 0,0 l/m 0,0 m/s (0 Bft) S-SW22.5 205 5 min 55,7 klux 4,3 C 10,8 C
10.04.2011 10:26 11,2 C 9,7 C 9,5 C 64 % 1024 hPa 0,0 l/m 0,0 m/s (0 Bft) S-SW45 205 5 min 56,7 klux 4,6 C 11,2 C
10.04.2011 10:31 11,5 C 10,1 C 9,8 C 64 % 1024 hPa 0,0 l/m 0,0 m/s (0 Bft) S-SW45 200 5 min 58,1 klux 4,9 C 11,5 C
10.04.2011 10:36 12,0 C 10,6 C 10,3 C 62 % 1024 hPa 0,0 l/m 0,0 m/s (0 Bft) S-SO22.5 165 5 min 58,5 klux 4,9 C 12,0 C
10.04.2011 10:42 12,6 C 11,0 C 10,5 C 59 % 1024 hPa 0,0 l/m 0,0 m/s (0 Bft) O-SO22.5 115 6 min 59,2 klux 4,8 C 12,6 C
10.04.2011 10:47 13,0 C 12,6 C 10,8 C 60 % 1024 hPa 0,0 l/m 2,7 m/s (2 Bft) S-SO45 150 5 min 60,3 klux 5,4 C 11,1 C
10.04.2011 10:52 13,2 C 14,1 C 11,2 C 58 % 1024 hPa 0,0 l/m 0,4 m/s (1 Bft) SO22.5 145 5 min 61,3 klux 5,1 C 13,2 C
10.04.2011 10:57 13,5 C 14,7 C 11,1 C 53 % 1024 hPa 0,0 l/m 0,0 m/s (0 Bft) O45 90 5 min 62,5 klux 4,1 C 13,5 C
10.04.2011 11:02 13,6 C 15,9 C 11,5 C 55 % 1024 hPa 0,0 l/m 0,1 m/s (0 Bft) SO45 130 5 min 63,4 klux 4,7 C 13,6 C
10.04.2011 11:07 13,7 C 16,3 C 12,1 C 53 % 1024 hPa 0,0 l/m 0,1 m/s (0 Bft) S-SO22.5 155 5 min 64,2 klux 4,3 C 13,7 C
10.04.2011 11:12 13,8 C 16,7 C 12,8 C 54 % 1024 hPa 0,0 l/m 0,2 m/s (0 Bft) S-SO45 165 5 min 65,4 klux 4,7 C 13,8 C
10.04.2011 11:17 13,9 C 17,4 C 13,3 C 52 % 1024 hPa 0,0 l/m 1,4 m/s (1 Bft) S-SO22.5 160 5 min 66,2 klux 4,2 C 13,9 C
10.04.2011 11:22 14,0 C 18,5 C 13,4 C 52 % 1024 hPa 0,0 l/m 1,4 m/s (1 Bft) S-SO22.5 160 5 min 66,8 klux 4,3 C 14,0 C
10.04.2011 11:27 14,0 C 19,3 C 14,1 C 50 % 1024 hPa 0,0 l/m 2,0 m/s (2 Bft) S-SW67.5 210 5 min 67,3 klux 3,7 C 13,5 C
10.04.2011 11:32 14,3 C 19,6 C 14,9 C 51 % 1024 hPa 0,0 l/m 0,4 m/s (1 Bft) S-SW45 200 5 min 68,5 klux 4,3 C 14,3 C
10.04.2011 11:37 14,3 C 20,2 C 15,1 C 50 % 1024 hPa 0,0 l/m 0,1 m/s (0 Bft) S-SO22.5 150 5 min 69,4 klux 4,0 C 14,3 C
10.04.2011 11:42 14,6 C 20,7 C 15,6 C 52 % 1024 hPa 0,0 l/m 0,2 m/s (0 Bft) S-SO22.5 160 5 min 70,2 klux 4,9 C 14,6 C
10.04.2011 11:47 15,0 C 21,0 C 16,3 C 50 % 1024 hPa 0,0 l/m 0,2 m/s (0 Bft) S45 180 5 min 71,3 klux 4,7 C 15,0 C
10.04.2011 11:52 15,0 C 21,2 C 16,7 C 50 % 1024 hPa 0,0 l/m 0,0 m/s (0 Bft) S-SO22.5 150 5 min 72,2 klux 4,7 C 15,0 C
10.04.2011 11:57 15,3 C 22,0 C 17,0 C 48 % 1024 hPa 0,0 l/m 0,5 m/s (1 Bft) SO45 125 5 min 72,3 klux 4,4 C 15,3 C
10.04.2011 12:02 15,6 C 22,2 C 17,8 C 48 % 1024 hPa 0,0 l/m 0,2 m/s (0 Bft) SO22.5 145 5 min 72,7 klux 4,6 C 15,6 C
10.04.2011 12:07 15,7 C 22,1 C 17,9 C 47 % 1024 hPa 0,0 l/m 0,4 m/s (1 Bft) S45 175 5 min 73,4 klux 4,4 C 15,7 C
10.04.2011 12:12 15,8 C 22,6 C 18,2 C 46 % 1024 hPa 0,0 l/m 0,4 m/s (1 Bft) S 170 5 min 73,9 klux 4,2 C 15,8 C
10.04.2011 12:17 16,2 C 23,2 C 18,5 C 46 % 1024 hPa 0,0 l/m 0,1 m/s (0 Bft) SO22.5 130 5 min 74,3 klux 4,6 C 16,2 C
10.04.2011 12:22 16,4 C 23,4 C 19,0 C 44 % 1024 hPa 0,0 l/m 0,1 m/s (0 Bft) O-SO22.5 120 5 min 74,3 klux 4,1 C 16,4 C
10.04.2011 12:27 16,3 C 23,9 C 19,1 C 43 % 1024 hPa 0,0 l/m 0,0 m/s (0 Bft) SO45 140 5 min 74,9 klux 3,7 C 16,3 C
10.04.2011 12:32 16,3 C 24,7 C 19,1 C 45 % 1024 hPa 0,0 l/m 1,8 m/s (2 Bft) S67.5 185 5 min 75,3 klux 4,3 C 16,3 C
10.04.2011 12:37 16,7 C 25,1 C 19,8 C 46 % 1024 hPa 0,0 l/m 0,2 m/s (0 Bft) S-SO45 150 5 min 75,5 klux 5,0 C 16,7 C
10.04.2011 12:42 17,2 C 25,3 C 20,0 C 45 % 1024 hPa 0,0 l/m 0,4 m/s (1 Bft) SO67.5 140 5 min 75,9 klux 5,2 C 17,2 C
10.04.2011 12:47 17,2 C 25,8 C 19,9 C 44 % 1024 hPa 0,0 l/m 2,9 m/s (2 Bft) O-SO45 120 5 min 76,5 klux 4,8 C 15,3 C
10.04.2011 12:52 17,4 C 26,1 C 20,3 C 44 % 1024 hPa 0,0 l/m 2,8 m/s (2 Bft) S-SO67.5 155 5 min 76,8 klux 5,0 C 15,7 C
10.04.2011 12:57 17,6 C 25,8 C 20,3 C 43 % 1024 hPa 0,0 l/m 2,3 m/s (2 Bft) S-SO22.5 165 5 min 77,0 klux 4,9 C 16,8 C
10.04.2011 13:02 17,6 C 26,0 C 20,2 C 44 % 1024 hPa 0,0 l/m 0,4 m/s (1 Bft) S45 175 5 min 77,2 klux 5,2 C 17,6 C
10.04.2011 13:07 17,9 C 26,5 C 20,1 C 43 % 1024 hPa 0,0 l/m 1,8 m/s (2 Bft) S22.5 185 5 min 77,4 klux 5,1 C 17,9 C
10.04.2011 13:12 18,0 C 26,8 C 19,8 C 40 % 1024 hPa 0,0 l/m 2,6 m/s (2 Bft) S-SO45 160 5 min 77,4 klux 4,2 C 16,7 C
10.04.2011 13:17 18,0 C 27,1 C 19,5 C 41 % 1024 hPa 0,0 l/m 0,2 m/s (0 Bft) SO45 125 5 min 77,9 klux 4,6 C 18,0 C
10.04.2011 13:22 18,0 C 27,3 C 19,3 C 40 % 1024 hPa 0,0 l/m 3,6 m/s (3 Bft) SO67.5 135 5 min 77,7 klux 4,2 C 15,4 C
10.04.2011 13:27 18,1 C 27,4 C 19,3 C 39 % 1024 hPa 0,0 l/m 3,5 m/s (3 Bft) O-SO45 105 5 min 77,7 klux 3,9 C 15,6 C
10.04.2011 13:32 18,0 C 27,8 C 19,1 C 40 % 1024 hPa 0,0 l/m 3,2 m/s (2 Bft) O-SO67.5 115 5 min 78,0 klux 4,2 C 15,9 C
10.04.2011 13:36 18,2 C 28,1 C 19,0 C 40 % 1024 hPa 0,0 l/m 0,1 m/s (0 Bft) NO67.5 50 4 min 77,7 klux 4,4 C 18,2 C
10.04.2011 13:41 18,2 C 28,9 C 18,9 C 40 % 1024 hPa 0,0 l/m 0,1 m/s (0 Bft) SO45 130 5 min 77,7 klux 4,4 C 18,2 C
10.04.2011 13:46 18,4 C 29,0 C 18,8 C 43 % 1024 hPa 0,0 l/m 0,1 m/s (0 Bft) S-SO45 150 5 min 77,9 klux 5,6 C 18,4 C
10.04.2011 13:51 18,5 C 29,0 C 18,5 C 39 % 1024 hPa 0,0 l/m 0,6 m/s (1 Bft) O45 95 5 min 77,9 klux 4,3 C 18,5 C
10.04.2011 13:56 18,8 C 29,4 C 18,7 C 40 % 1024 hPa 0,0 l/m 3,5 m/s (3 Bft) SO45 140 5 min 77,4 klux 4,9 C 16,5 C
10.04.2011 14:01 18,8 C 29,5 C 18,4 C 40 % 1024 hPa 0,0 l/m 3,4 m/s (2 Bft) S-SO45 150 5 min 77,3 klux 4,9 C 16,6 C
10.04.2011 14:06 19,0 C 29,5 C 18,4 C 40 % 1024 hPa 0,0 l/m 3,8 m/s (3 Bft) SO45 125 5 min 77,0 klux 5,1 C 16,4 C
10.04.2011 14:11 19,0 C 29,8 C 18,3 C 39 % 1024 hPa 0,0 l/m 3,5 m/s (3 Bft) SO45 130 5 min 76,9 klux 4,7 C 16,7 C
10.04.2011 14:16 18,9 C 30,0 C 18,2 C 40 % 1024 hPa 0,0 l/m 4,0 m/s (3 Bft) SO67.5 125 5 min 76,9 klux 5,0 C 16,1 C
10.04.2011 14:21 19,0 C 30,1 C 18,1 C 39 % 1024 hPa 0,0 l/m 2,5 m/s (2 Bft) SO67.5 125 5 min 76,8 klux 4,7 C 17,9 C
10.04.2011 14:26 19,2 C 30,5 C 18,1 C 39 % 1024 hPa 0,0 l/m 0,1 m/s (0 Bft) SO45 135 5 min 76,3 klux 4,9 C 19,2 C
10.04.2011 14:31 19,3 C 30,6 C 18,0 C 39 % 1024 hPa 0,0 l/m 0,0 m/s (0 Bft) O-SO45 105 5 min 76,1 klux 5,0 C 19,3 C
10.04.2011 14:36 19,0 C 30,3 C 17,8 C 36 % 1024 hPa 0,0 l/m 0,2 m/s (0 Bft) O-SO45 105 5 min 75,8 klux 3,6 C 19,0 C
10.04.2011 14:41 19,1 C 30,6 C 17,9 C 38 % 1024 hPa 0,0 l/m 0,0 m/s (0 Bft) O45 80 5 min 75,7 klux 4,4 C 19,1 C
10.04.2011 14:46 19,2 C 30,9 C 17,8 C 38 % 1024 hPa 0,0 l/m 3,6 m/s (3 Bft) SO45 145 5 min 75,4 klux 4,5 C 16,8 C
10.04.2011 14:51 19,2 C 31,1 C 17,8 C 38 % 1024 hPa 0,0 l/m 3,3 m/s (2 Bft) SO67.5 140 5 min 74,9 klux 4,5 C 17,2 C
10.04.2011 14:56 19,6 C 31,5 C 17,9 C 39 % 1023 hPa 0,0 l/m 0,3 m/s (1 Bft) S-SW45 195 5 min 73,9 klux 5,3 C 19,6 C
10.04.2011 15:01 19,6 C 31,4 C 17,7 C 36 % 1023 hPa 0,0 l/m 0,1 m/s (0 Bft) SO45 135 5 min 73,9 klux 4,1 C 19,6 C
10.04.2011 15:06 19,8 C 31,8 C 17,7 C 38 % 1023 hPa 0,0 l/m 2,6 m/s (2 Bft) O-SO45 110 5 min 73,3 klux 5,1 C 18,6 C
10.04.2011 15:11 19,8 C 31,9 C 17,9 C 38 % 1023 hPa 0,0 l/m 4,0 m/s (3 Bft) SO67.5 140 5 min 72,8 klux 5,1 C 17,2 C
10.04.2011 15:16 20,3 C 31,7 C 17,8 C 36 % 1023 hPa 0,0 l/m 3,7 m/s (3 Bft) SO45 145 5 min 72,1 klux 4,7 C 18,0 C
10.04.2011 15:21 20,4 C 31,8 C 18,0 C 36 % 1023 hPa 0,0 l/m 3,3 m/s (2 Bft) S-SO67.5 150 5 min 70,6 klux 4,8 C 18,6 C
10.04.2011 15:26 20,3 C 31,7 C 17,8 C 33 % 1023 hPa 0,0 l/m 3,6 m/s (3 Bft) SO45 130 5 min 70,2 klux 3,5 C 18,1 C
10.04.2011 15:31 20,2 C 31,9 C 17,8 C 35 % 1023 hPa 0,0 l/m 3,8 m/s (3 Bft) SO45 140 5 min 69,3 klux 4,2 C 17,8 C
10.04.2011 15:36 20,3 C 31,9 C 17,8 C 34 % 1023 hPa 0,0 l/m 4,1 m/s (3 Bft) O-SO22.5 120 5 min 68,9 klux 3,9 C 17,6 C
10.04.2011 15:41 20,6 C 32,0 C 17,8 C 34 % 1023 hPa 0,0 l/m 3,0 m/s (2 Bft) S-SO45 150 5 min 68,4 klux 4,2 C 19,1 C
10.04.2011 15:46 20,7 C 31,7 C 17,9 C 34 % 1023 hPa 0,0 l/m 4,3 m/s (3 Bft) SO45 145 5 min 67,9 klux 4,3 C 18,0 C
10.04.2011 15:51 20,2 C 31,5 C 17,7 C 33 % 1023 hPa 0,0 l/m 0,0 m/s (0 Bft) O-SO45 110 5 min 66,9 klux 3,4 C 20,2 C
10.04.2011 15:56 20,3 C 32,1 C 17,8 C 33 % 1023 hPa 0,0 l/m 0,1 m/s (0 Bft) SO67.5 135 5 min 66,7 klux 3,5 C 20,3 C
10.04.2011 16:01 20,2 C 31,7 C 17,6 C 31 % 1023 hPa 0,0 l/m 4,3 m/s (3 Bft) SO67.5 135 5 min 65,7 klux 2,5 C 17,4 C
10.04.2011 16:06 20,2 C 31,8 C 17,6 C 32 % 1023 hPa 0,0 l/m 4,1 m/s (3 Bft) SO45 135 5 min 64,7 klux 3,0 C 17,6 C
10.04.2011 16:11 20,3 C 31,8 C 17,7 C 33 % 1023 hPa 0,0 l/m 3,9 m/s (3 Bft) SO67.5 125 5 min 63,8 klux 3,5 C 17,9 C
10.04.2011 16:16 20,4 C 31,8 C 17,8 C 33 % 1023 hPa 0,0 l/m 3,7 m/s (3 Bft) S-SO67.5 160 5 min 62,5 klux 3,6 C 18,1 C
10.04.2011 16:21 20,2 C 31,5 C 17,6 C 33 % 1023 hPa 0,0 l/m 0,6 m/s (1 Bft) O-SO22.5 115 5 min 61,7 klux 3,4 C 20,2 C
10.04.2011 16:26 20,2 C 31,8 C 17,5 C 35 % 1023 hPa 0,0 l/m 0,1 m/s (0 Bft) O-SO45 110 5 min 60,7 klux 4,2 C 20,2 C
10.04.2011 16:31 20,3 C 32,0 C 17,7 C 34 % 1023 hPa 0,0 l/m 0,1 m/s (0 Bft) O-SO22.5 120 5 min 59,7 klux 3,9 C 20,3 C
10.04.2011 16:36 20,2 C 32,0 C 17,6 C 36 % 1023 hPa 0,0 l/m 5,7 m/s (4 Bft) SO67.5 135 5 min 58,5 klux 4,7 C 16,4 C
10.04.2011 16:41 20,3 C 32,1 C 17,5 C 35 % 1023 hPa 0,0 l/m 3,2 m/s (2 Bft) O-SO22.5 120 5 min 57,0 klux 4,3 C 18,5 C
10.04.2011 16:46 20,2 C 32,1 C 17,5 C 34 % 1023 hPa 0,0 l/m 4,5 m/s (3 Bft) SO22.5 125 5 min 56,5 klux 3,8 C 17,2 C
10.04.2011 16:51 20,0 C 32,0 C 17,4 C 33 % 1023 hPa 0,0 l/m 4,3 m/s (3 Bft) O-SO45 120 5 min 55,1 klux 3,2 C 17,1 C
10.04.2011 16:56 20,1 C 32,1 C 17,5 C 34 % 1023 hPa 0,0 l/m 4,1 m/s (3 Bft) O-SO22.5 115 5 min 53,9 klux 3,7 C 17,4 C
10.04.2011 17:01 20,1 C 32,0 C 17,4 C 35 % 1023 hPa 0,0 l/m 0,0 m/s (0 Bft) O-SO45 115 5 min 52,4 klux 4,2 C 20,1 C
10.04.2011 17:07 20,1 C 32,0 C 17,3 C 35 % 1023 hPa 0,0 l/m 0,5 m/s (1 Bft) SO45 145 6 min 51,8 klux 4,2 C 20,1 C
10.04.2011 17:12 20,1 C 31,9 C 17,5 C 35 % 1023 hPa 0,0 l/m 4,3 m/s (3 Bft) SO45 135 5 min 50,5 klux 4,2 C 17,2 C
10.04.2011 17:17 20,2 C 32,0 C 17,5 C 35 % 1023 hPa 0,0 l/m 3,7 m/s (3 Bft) S-SO45 160 5 min 49,3 klux 4,2 C 17,9 C
10.04.2011 17:22 20,3 C 31,9 C 17,5 C 35 % 1023 hPa 0,0 l/m 3,2 m/s (2 Bft) SO45 145 5 min 48,0 klux 4,3 C 18,5 C
10.04.2011 17:27 20,4 C 31,7 C 17,6 C 33 % 1023 hPa 0,0 l/m 3,8 m/s (3 Bft) SO45 130 5 min 46,6 klux 3,6 C 18,1 C
10.04.2011 17:32 20,0 C 31,4 C 17,4 C 33 % 1023 hPa 0,0 l/m 3,2 m/s (2 Bft) SO45 140 5 min 45,6 klux 3,2 C 18,2 C
10.04.2011 17:37 20,2 C 31,4 C 17,3 C 32 % 1023 hPa 0,0 l/m 3,2 m/s (2 Bft) SO45 140 5 min 43,9 klux 3,0 C 18,4 C
10.04.2011 17:42 19,9 C 31,4 C 17,2 C 31 % 1023 hPa 0,0 l/m 3,5 m/s (3 Bft) SO22.5 135 5 min 43,1 klux 2,3 C 17,7 C
10.04.2011 17:47 19,9 C 31,2 C 17,3 C 32 % 1023 hPa 0,0 l/m 3,6 m/s (3 Bft) SO22.5 135 5 min 42,2 klux 2,7 C 17,7 C
10.04.2011 17:51 20,0 C 31,2 C 17,2 C 31 % 1023 hPa 0,0 l/m 3,6 m/s (3 Bft) SO45 130 4 min 40,8 klux 2,4 C 17,8 C
10.04.2011 17:56 19,9 C 31,0 C 17,1 C 31 % 1023 hPa 0,0 l/m 3,4 m/s (2 Bft) SO22.5 125 5 min 39,5 klux 2,3 C 17,9 C
10.04.2011 18:01 19,9 C 31,0 C 17,2 C 32 % 1023 hPa 0,0 l/m 3,4 m/s (2 Bft) SO22.5 125 5 min 38,4 klux 2,7 C 17,9 C
10.04.2011 18:06 19,8 C 30,7 C 17,3 C 32 % 1023 hPa 0,0 l/m 4,8 m/s (3 Bft) SO45 140 5 min 36,7 klux 2,6 C 16,5 C
10.04.2011 18:11 19,8 C 30,4 C 17,4 C 33 % 1023 hPa 0,0 l/m 3,4 m/s (2 Bft) S-SO45 160 5 min 35,3 klux 3,1 C 17,8 C
10.04.2011 18:17 19,7 C 30,3 C 17,3 C 32 % 1023 hPa 0,0 l/m 3,5 m/s (3 Bft) SO45 135 6 min 33,8 klux 2,5 C 17,5 C
10.04.2011 18:22 19,6 C 30,1 C 17,4 C 33 % 1023 hPa 0,0 l/m 3,1 m/s (2 Bft) SO45 145 5 min 32,3 klux 2,9 C 17,8 C
10.04.2011 18:27 19,6 C 29,6 C 17,3 C 33 % 1023 hPa 0,0 l/m 0,1 m/s (0 Bft) SO45 125 5 min 31,0 klux 2,9 C 19,6 C
10.04.2011 18:32 19,3 C 29,6 C 17,2 C 32 % 1023 hPa 0,0 l/m 2,4 m/s (2 Bft) SO45 125 5 min 30,1 klux 2,2 C 18,3 C
10.04.2011 18:37 19,2 C 28,6 C 17,3 C 32 % 1023 hPa 0,0 l/m 0,1 m/s (0 Bft) O-SO22.5 105 5 min 28,7 klux 2,1 C 19,2 C
10.04.2011 18:41 19,0 C 28,4 C 17,2 C 33 % 1023 hPa 0,0 l/m 3,6 m/s (3 Bft) O-SO22.5 120 4 min 26,8 klux 2,4 C 16,6 C
10.04.2011 18:46 19,0 C 27,8 C 17,2 C 33 % 1023 hPa 0,0 l/m 3,5 m/s (3 Bft) SO45 135 5 min 22,4 klux 2,4 C 16,7 C
10.04.2011 18:51 18,9 C 27,5 C 17,2 C 34 % 1023 hPa 0,0 l/m 2,5 m/s (2 Bft) SO22.5 130 5 min 20,2 klux 2,7 C 17,8 C
10.04.2011 18:56 18,8 C 26,9 C 17,0 C 34 % 1023 hPa 0,0 l/m 0,1 m/s (0 Bft) O22.5 100 5 min 19,6 klux 2,6 C 18,8 C
10.04.2011 19:01 18,8 C 26,0 C 16,9 C 34 % 1023 hPa 0,0 l/m 2,2 m/s (2 Bft) O22.5 100 5 min 18,1 klux 2,6 C 18,1 C
10.04.2011 19:07 18,4 C 25,8 C 16,9 C 35 % 1023 hPa 0,0 l/m 2,3 m/s (2 Bft) O-SO22.5 105 6 min 16,4 klux 2,7 C 17,5 C
10.04.2011 19:12 18,3 C 25,2 C 16,8 C 34 % 1023 hPa 0,0 l/m 0,1 m/s (0 Bft) O22.5 100 5 min 14,5 klux 2,2 C 18,3 C
10.04.2011 19:17 18,3 C 24,3 C 16,6 C 35 % 1023 hPa 0,0 l/m 0,1 m/s (0 Bft) O-SO22.5 105 5 min 11,9 klux 2,6 C 18,3 C
10.04.2011 19:22 18,5 C 23,9 C 16,4 C 35 % 1023 hPa 0,0 l/m 0,1 m/s (0 Bft) O-SO22.5 110 5 min 11,1 klux 2,8 C 18,5 C
10.04.2011 19:26 18,5 C 23,0 C 16,4 C 35 % 1023 hPa 0,0 l/m 0,1 m/s (0 Bft) O-SO22.5 105 4 min 10,2 klux 2,8 C 18,5 C
10.04.2011 19:31 18,4 C 22,1 C 16,2 C 35 % 1023 hPa 0,0 l/m 0,1 m/s (0 Bft) O22.5 100 5 min 8,59 klux 2,7 C 18,4 C
10.04.2011 19:36 18,0 C 21,2 C 15,9 C 36 % 1023 hPa 0,0 l/m 0,0 m/s (0 Bft) O 90 5 min 7,05 klux 2,7 C 18,0 C
10.04.2011 19:41 17,3 C 21,2 C 15,7 C 37 % 1023 hPa 0,0 l/m 0,0 m/s (0 Bft) O-NO22.5 70 0 min 5,02 klux 2,5 C 17,3 C
10.04.2011 19:46 16,7 C 20,1 C 15,5 C 39 % 1023 hPa 0,0 l/m 0,0 m/s (0 Bft) O-NO 65 0 min 3,58 klux 2,7 C 16,7 C
10.04.2011 19:51 16,4 C 19,3 C 15,2 C 40 % 1023 hPa 0,0 l/m 0,0 m/s (0 Bft) O-NO 65 0 min 2,69 klux 2,8 C 16,4 C
10.04.2011 19:57 15,7 C 19,0 C 14,9 C 41 % 1023 hPa 0,0 l/m 0,0 m/s (0 Bft) O-NO 65 0 min 1,86 klux 2,5 C 15,7 C
10.04.2011 20:02 15,2 C 18,4 C 14,7 C 42 % 1023 hPa 0,0 l/m 0,0 m/s (0 Bft) O-NO 65 0 min 1,22 klux 2,4 C 15,2 C
10.04.2011 20:07 15,0 C 17,8 C 14,6 C 42 % 1023 hPa 0,0 l/m 0,0 m/s (0 Bft) O-NO 65 0 min 784 lux 2,2 C 15,0 C
10.04.2011 20:12 14,7 C 17,2 C 14,4 C 42 % 1023 hPa 0,0 l/m 0,0 m/s (0 Bft) O-NO 65 0 min 520 lux 1,9 C 14,7 C
10.04.2011 20:16 14,4 C 17,0 C 14,2 C 43 % 1023 hPa 0,0 l/m 0,0 m/s (0 Bft) O-NO 65 0 min 416 lux 2,0 C 14,4 C
10.04.2011 20:21 14,4 C 16,8 C 14,0 C 43 % 1023 hPa 0,0 l/m 0,0 m/s (0 Bft) O-NO22.5 70 0 min 259 lux 2,0 C 14,4 C
10.04.2011 20:26 14,2 C 16,1 C 13,7 C 44 % 1023 hPa 0,0 l/m 0,0 m/s (0 Bft) O-NO 65 0 min 150 lux 2,1 C 14,2 C
10.04.2011 20:31 13,8 C 15,9 C 13,6 C 45 % 1023 hPa 0,0 l/m 0,0 m/s (0 Bft) O-NO 65 0 min 81 lux 2,1 C 13,8 C
10.04.2011 20:36 13,6 C 15,5 C 13,3 C 45 % 1023 hPa 0,0 l/m 0,0 m/s (0 Bft) O-NO 65 0 min 44 lux 1,9 C 13,6 C
10.04.2011 20:41 13,4 C 15,1 C 13,2 C 45 % 1023 hPa 0,0 l/m 0,0 m/s (0 Bft) O-NO 65 0 min 27 lux 1,7 C 13,4 C
10.04.2011 20:47 13,0 C 15,0 C 13,1 C 45 % 1023 hPa 0,0 l/m 0,0 m/s (0 Bft) O-NO 65 0 min 20 lux 1,4 C 13,0 C
10.04.2011 20:52 12,7 C 14,7 C 13,0 C 47 % 1023 hPa 0,0 l/m 0,0 m/s (0 Bft) O-NO 65 0 min 12 lux 1,7 C 12,7 C
10.04.2011 20:57 12,5 C 14,4 C 12,8 C 47 % 1023 hPa 0,0 l/m 0,0 m/s (0 Bft) O-NO 65 0 min 11 lux 1,5 C 12,5 C
10.04.2011 21:02 12,4 C 14,1 C 12,6 C 47 % 1023 hPa 0,0 l/m 0,0 m/s (0 Bft) O-NO 70 0 min 9 lux 1,4 C 12,4 C
10.04.2011 21:06 12,2 C 14,0 C 12,5 C 47 % 1023 hPa 0,0 l/m 0,0 m/s (0 Bft) O-NO 70 0 min 9 lux 1,2 C 12,2 C
10.04.2011 21:11 12,0 C 13,7 C 12,2 C 48 % 1023 hPa 0,0 l/m 0,0 m/s (0 Bft) O-NO 65 0 min 6 lux 1,3 C 12,0 C
10.04.2011 21:16 11,8 C 13,5 C 12,2 C 51 % 1023 hPa 0,0 l/m 0,0 m/s (0 Bft) O-NO 65 0 min 6 lux 2,0 C 11,8 C
10.04.2011 21:21 11,6 C 13,3 C 12,1 C 53 % 1023 hPa 0,0 l/m 0,0 m/s (0 Bft) O-NO 65 0 min 6 lux 2,4 C 11,6 C
10.04.2011 21:26 11,5 C 13,1 C 11,8 C 53 % 1023 hPa 0,0 l/m 0,0 m/s (0 Bft) O-NO 65 0 min 6 lux 2,3 C 11,5 C
10.04.2011 21:32 11,3 C 12,9 C 11,8 C 53 % 1023 hPa 0,0 l/m 0,0 m/s (0 Bft) O-NO 65 0 min 4 lux 2,1 C 11,3 C
10.04.2011 21:37 11,0 C 12,8 C 11,6 C 54 % 1024 hPa 0,0 l/m 0,0 m/s (0 Bft) O-NO 65 0 min 4 lux 2,1 C 11,0 C
10.04.2011 21:42 10,8 C 12,6 C 11,6 C 55 % 1023 hPa 0,0 l/m 0,0 m/s (0 Bft) O-NO 70 0 min 4 lux 2,1 C 10,8 C
10.04.2011 21:47 10,7 C 12,3 C 11,3 C 55 % 1024 hPa 0,0 l/m 0,0 m/s (0 Bft) O-NO 65 0 min 4 lux 2,0 C 10,7 C
10.04.2011 21:51 10,4 C 12,2 C 11,1 C 55 % 1024 hPa 0,0 l/m 0,0 m/s (0 Bft) O-NO 65 0 min 1 lux 1,8 C 10,4 C
10.04.2011 21:56 10,2 C 12,0 C 10,9 C 56 % 1024 hPa 0,0 l/m 0,0 m/s (0 Bft) O-NO 65 0 min 1 lux 1,8 C 10,2 C
10.04.2011 22:01 10,1 C 11,9 C 10,9 C 56 % 1024 hPa 0,0 l/m 0,0 m/s (0 Bft) O-NO 65 0 min 1 lux 1,7 C 10,1 C
10.04.2011 22:06 10,0 C 11,7 C 10,9 C 57 % 1024 hPa 0,0 l/m 0,0 m/s (0 Bft) O-NO 65 0 min 3 lux 1,9 C 10,0 C
10.04.2011 22:11 9,9 C 11,6 C 10,8 C 57 % 1024 hPa 0,0 l/m 0,0 m/s (0 Bft) O-NO 70 0 min 1 lux 1,8 C 9,9 C
10.04.2011 22:16 9,8 C 11,5 C 10,6 C 58 % 1024 hPa 0,0 l/m 0,0 m/s (0 Bft) O-NO 70 0 min 0 lux 1,9 C 9,8 C
10.04.2011 22:21 9,6 C 11,3 C 10,5 C 58 % 1024 hPa 0,0 l/m 0,0 m/s (0 Bft) O-NO 65 0 min 0 lux 1,8 C 9,6 C
10.04.2011 22:26 9,6 C 11,1 C 10,4 C 58 % 1024 hPa 0,0 l/m 0,0 m/s (0 Bft) O-NO 65 0 min 0 lux 1,8 C 9,6 C
10.04.2011 22:31 9,4 C 11,0 C 10,3 C 59 % 1024 hPa 0,0 l/m 0,0 m/s (0 Bft) O-NO 65 0 min 0 lux 1,8 C 9,4 C
10.04.2011 22:36 9,2 C 10,8 C 10,3 C 59 % 1024 hPa 0,0 l/m 0,0 m/s (0 Bft) O-NO 65 0 min 0 lux 1,6 C 9,2 C
10.04.2011 22:41 9,0 C 10,7 C 10,1 C 60 % 1024 hPa 0,0 l/m 0,0 m/s (0 Bft) O-NO 65 0 min 0 lux 1,7 C 9,0 C
10.04.2011 22:46 8,9 C 10,6 C 10,1 C 61 % 1024 hPa 0,0 l/m 0,0 m/s (0 Bft) O-NO 65 0 min 0 lux 1,8 C 8,9 C
10.04.2011 22:51 8,9 C 10,5 C 10,0 C 61 % 1024 hPa 0,0 l/m 0,0 m/s (0 Bft) O-NO 65 0 min 0 lux 1,8 C 8,9 C
10.04.2011 22:57 8,8 C 10,4 C 9,9 C 61 % 1024 hPa 0,0 l/m 0,0 m/s (0 Bft) O-NO 70 0 min 0 lux 1,7 C 8,8 C
10.04.2011 23:02 8,6 C 10,3 C 9,8 C 61 % 1024 hPa 0,0 l/m 0,0 m/s (0 Bft) O-NO 70 0 min 0 lux 1,5 C 8,6 C
10.04.2011 23:07 8,6 C 10,2 C 9,8 C 62 % 1024 hPa 0,0 l/m 0,0 m/s (0 Bft) O-NO 70 0 min 0 lux 1,7 C 8,6 C
10.04.2011 23:12 8,4 C 10,0 C 9,6 C 62 % 1024 hPa 0,0 l/m 0,0 m/s (0 Bft) O-NO 70 0 min 0 lux 1,6 C 8,4 C
10.04.2011 23:17 8,4 C 10,0 C 9,5 C 62 % 1024 hPa 0,0 l/m 0,0 m/s (0 Bft) O-NO 65 0 min 0 lux 1,6 C 8,4 C
10.04.2011 23:22 8,2 C 9,8 C 9,3 C 63 % 1024 hPa 0,0 l/m 0,0 m/s (0 Bft) O-NO 65 0 min 0 lux 1,6 C 8,2 C
10.04.2011 23:27 8,1 C 9,7 C 9,3 C 63 % 1024 hPa 0,0 l/m 0,0 m/s (0 Bft) O-NO 65 0 min 0 lux 1,5 C 8,1 C
10.04.2011 23:32 8,0 C 9,6 C 9,3 C 63 % 1024 hPa 0,0 l/m 0,0 m/s (0 Bft) O-NO 65 0 min 0 lux 1,4 C 8,0 C
10.04.2011 23:37 7,9 C 9,5 C 9,1 C 64 % 1024 hPa 0,0 l/m 0,0 m/s (0 Bft) O-NO 65 0 min 0 lux 1,5 C 7,9 C
10.04.2011 23:42 7,8 C 9,4 C 9,1 C 65 % 1024 hPa 0,0 l/m 0,0 m/s (0 Bft) O-NO 65 0 min 0 lux 1,6 C 7,8 C
10.04.2011 23:47 7,8 C 9,3 C 9,1 C 65 % 1024 hPa 0,0 l/m 0,0 m/s (0 Bft) O-NO 70 0 min 0 lux 1,6 C 7,8 C
10.04.2011 23:52 7,6 C 9,2 C 9,1 C 66 % 1024 hPa 0,0 l/m 0,0 m/s (0 Bft) O-NO 70 0 min 0 lux 1,7 C 7,6 C
10.04.2011 23:57 7,6 C 9,1 C 8,9 C 66 % 1024 hPa 0,0 l/m 0,0 m/s (0 Bft) O-NO 70 0 min 0 lux 1,7 C 7,6 C
_ Min-Zeit 06:37 06:57 07:02 16:01 00:02 - 00:02 - - - - 06:02 06:37
Minimum _ 1,2 C 2,2 C 3,6 C 31 % 1023 hPa - 0,0 m/s (0 Bft) - - - - -2,2 C 1,2 C
_ Max-Zeit 15:46 15:56 12:52 07:07 05:57 00:02 16:36 - - 08:52 13:32 13:46 15:56
Maximum _ 20,7 C 32,1 C 20,3 C 80 % 1024 hPa 0,0 l/m 5,7 m/s
SO (4 Bft)
- - 6 min 78,0 klux 5,6 C 20,3 C
Durchschnitt _ 10,7 C 14,7 C 11,1 C 56 % 1023 hPa #0,0 l/m 0,8 m/s (1 Bft) SO - #11:35 h 26,9 klux 1,6 C 10,3 C